Weather History for Wichita, KS

Change the Weather History Date:

Tuesday, September 17, 2013

  Actual Average Record
Temperature  
Mean Temperature 76 °F 70 °F  
Max Temperature 85 °F 82 °F 100 °F (1931)
Min Temperature 67 °F 59 °F 40 °F (1973)
Degree Days  
Heating Degree Days 0 1  
Month to date heating degree days 0 7  
Since 1 July heating degree days 1 8  
Cooling Degree Days 11 7  
Month to date cooling degree days 238 159  
Year to date cooling degree days 1651 1586  
Growing Degree Days 25 (Base 50)    
Moisture  
Dew Point 67 °F    
Average Humidity 78    
Maximum Humidity 100    
Minimum Humidity 55    
Precipitation  
Precipitation 0.06 in 0.10 in 3.12 in (1905)
Month to date precipitation 0.39 1.80  
Year to date precipitation 34.56 25.89  
Snow  
Snow 0.00 in 0.00 in 0.00 in (2007)
Month to date snowfall 0.0 0.0  
Since 1 July snowfall 0.0 0.0  
Since 1 September snowfall 0.0 0.0  
Snow Depth 0.00 in    
Sea Level Pressure  
Sea Level Pressure 30.04 in    
Wind  
Wind Speed 11 mph (SSE)    
Max Wind Speed 21 mph    
Max Gust Speed 28 mph    
Visibility 7 miles    
Events Rain , Thunderstorm    
T = Trace of Precipitation, MM = Missing Value Source: NWS Daily Summary

Daily Weather History Graph

Daily Weather History Graph

Search for Another Location

Airport:

Trip Planner

Search our weather history database for the weather conditions in past years. The results will help you decide how hot, cold, wet, or windy it might be!

Date:

Astronomy

Sep. 17, 2013 Rise Set
Actual Time 7:13 AM CDT 7:33 PM CDT
Civil Twilight 6:47 AM CDT 8:00 PM CDT
Nautical Twilight 6:16 AM CDT 8:30 PM CDT
Astronomical Twilight 5:45 AM CDT 9:02 PM CDT
Moon 6:21 PM CDT (9/17) 5:11 AM CDT (9/17)
Length of Visible Light 13h 12m
Length of Day
12h 20m
Waxing Gibbous, 96% of the Moon is Illuminated
Sep 17
Waxing Gibbous
Sep 19
Full
Sep 26
Last Quarter
Oct 4
New
Oct 11
First Quarter

Hourly Weather History & Observations

Time (CDT) Temp. Heat Index Dew Point Humidity Pressure Visibility Wind Dir Wind Speed Gust Speed Precip Events Conditions
12:34 AM 69.8 °F - 68.0 °F 94% 30.15 in 4.0 mi ESE 6.9 mph - N/A Thunderstorm Overcast
12:53 AM 69.1 °F - 68.0 °F 96% 30.12 in 3.0 mi East 6.9 mph - 0.00 in Rain , Thunderstorm Light Thunderstorms and Rain
1:10 AM 69.8 °F - 68.0 °F 94% 30.14 in 2.5 mi ESE 9.2 mph - 0.02 in Rain , Thunderstorm Thunderstorms and Rain
1:17 AM 69.8 °F - 68.0 °F 94% 30.14 in 3.0 mi ESE 8.1 mph - 0.03 in Rain , Thunderstorm Thunderstorms and Rain
1:38 AM 68.0 °F - 66.2 °F 94% 30.15 in 5.0 mi ESE 5.8 mph - 0.04 in Rain Light Rain
1:53 AM 69.1 °F - 66.9 °F 93% 30.11 in 6.0 mi ESE 8.1 mph - 0.05 in Rain Light Rain
2:23 AM 68.0 °F - 66.2 °F 94% 30.13 in 7.0 mi ESE 9.2 mph - 0.01 in   Overcast
2:53 AM 68.0 °F - 66.9 °F 96% 30.09 in 5.0 mi SE 6.9 mph - 0.01 in   Overcast
3:53 AM 68.0 °F - 66.9 °F 96% 30.08 in 5.0 mi South 8.1 mph - N/A   Overcast
4:09 AM 68.0 °F - 66.2 °F 94% 30.10 in 5.0 mi SE 8.1 mph - N/A   Overcast
4:53 AM 68.0 °F - 66.0 °F 93% 30.08 in 5.0 mi SSE 9.2 mph - 0.00 in   Overcast
5:53 AM 66.9 °F - 66.0 °F 97% 30.06 in 5.0 mi ESE 6.9 mph - N/A   Mostly Cloudy
6:53 AM 66.9 °F - 64.9 °F 93% 30.07 in 6.0 mi ESE 6.9 mph - N/A   Overcast
7:53 AM 66.9 °F - 64.9 °F 93% 30.08 in 6.0 mi East 3.5 mph - N/A   Mostly Cloudy
8:53 AM 68.0 °F - 66.0 °F 93% 30.08 in 5.0 mi SE 4.6 mph - N/A   Overcast
9:53 AM 70.0 °F - 66.9 °F 90% 30.07 in 5.0 mi SSE 8.1 mph - N/A   Overcast
10:40 AM 71.6 °F - 68.0 °F 88% 30.10 in 6.0 mi SSE 13.8 mph - N/A   Mostly Cloudy
10:53 AM 71.1 °F - 66.9 °F 87% 30.07 in 6.0 mi SSE 12.7 mph - N/A   Mostly Cloudy
11:53 AM 75.0 °F - 68.0 °F 79% 30.06 in 6.0 mi South 11.5 mph - N/A   Haze
12:03 PM 77.0 °F - 68.0 °F 74% 30.08 in 7.0 mi South 15.0 mph 20.7 mph N/A   Mostly Cloudy
12:26 PM 77.0 °F - 66.2 °F 69% 30.08 in 7.0 mi South 13.8 mph - N/A   Overcast
12:53 PM 78.1 °F - 66.9 °F 68% 30.04 in 8.0 mi South 12.7 mph - N/A   Mostly Cloudy
1:53 PM 81.0 °F 83.3 °F 66.9 °F 62% 30.00 in 10.0 mi South 19.6 mph 23.0 mph N/A   Scattered Clouds
2:53 PM 82.0 °F 84.9 °F 68.0 °F 62% 29.97 in 10.0 mi South 15.0 mph - N/A   Scattered Clouds
3:53 PM 84.0 °F 86.3 °F 66.0 °F 55% 29.94 in 10.0 mi South 19.6 mph 26.5 mph N/A   Partly Cloudy
4:53 PM 84.0 °F 86.3 °F 66.0 °F 55% 29.91 in 10.0 mi South 20.7 mph - N/A   Partly Cloudy
5:53 PM 84.0 °F 86.3 °F 66.0 °F 55% 29.89 in 10.0 mi South 17.3 mph 23.0 mph N/A   Clear
6:53 PM 80.1 °F 82.1 °F 66.0 °F 62% 29.90 in 10.0 mi South 12.7 mph - N/A   Clear
7:53 PM 75.9 °F - 66.9 °F 74% 29.90 in 10.0 mi SSE 12.7 mph - N/A   Partly Cloudy
8:53 PM 73.9 °F - 68.0 °F 82% 29.91 in 10.0 mi SSE 13.8 mph - N/A   Partly Cloudy
9:53 PM 73.0 °F - 68.0 °F 84% 29.93 in 9.0 mi SSE 11.5 mph - N/A   Partly Cloudy
10:53 PM 72.0 °F - 68.0 °F 87% 29.93 in 9.0 mi SSE 13.8 mph - N/A   Partly Cloudy
11:53 PM 72.0 °F - 68.0 °F 87% 29.93 in 8.0 mi South 10.4 mph - N/A   Scattered Clouds